Theta_e
335 337 339 346 346 342 344 346 345 344 345 345 343 344 343 344 343 343 343 343 343 343 345 345 345 344 344 344 344 344 345 345 344 345 344 344 344 347 347 347 347 347 347 347 347 346 345 344 344 344 343 342 342 342 342 342 341 342 341 341 341 341 341 338 337 337 337 338 338 338 338 339 339 339 338 337 337 338 338 338 337 335 334 337 340
336 339 337 340 346 343 343 345 345 344 344 343 343 344 344 343 342 343 342 343 342 343 343 343 343 342 342 342 342 342 343 343 343 343 345 345 345 346 347 347 346 346 347 346 346 346 344 343 342 344 343 342 341 342 341 340 340 340 339 340 340 340 341 336 336 336 337 337 338 337 337 337 337 337 338 338 337 336 336 336 337 334 334 339 339
338 339 339 341 347 346 344 344 344 344 343 343 344 345 344 344 343 341 341 341 341 341 340 341 342 342 343 344 343 342 342 342 342 343 344 344 344 345 345 346 346 346 346 346 345 344 343 344 343 343 342 341 341 341 341 340 339 339 340 340 340 339 339 337 335 335 336 337 337 337 336 336 337 337 337 339 339 337 336 335 335 335 332 338 338
337 339 340 342 347 345 345 343 343 344 343 344 344 344 344 343 342 341 341 340 340 341 341 342 344 344 344 344 343 343 343 344 345 344 345 345 344 344 345 345 345 345 345 345 344 344 343 341 342 342 342 341 341 341 340 339 340 339 339 339 340 341 340 336 335 334 334 334 334 332 331 329 332 336 337 337 337 337 336 335 334 334 335 335 336
338 339 340 340 343 345 345 345 344 342 343 343 343 343 343 342 341 342 342 342 341 340 340 341 343 344 344 344 343 344 346 346 345 345 345 344 345 344 345 344 345 345 345 345 345 344 343 341 341 342 341 341 341 340 339 338 338 339 339 339 340 342 337 336 335 335 335 334 332 330 325 326 327 336 337 335 336 336 335 335 335 335 334 334 334
338 339 339 340 342 343 346 345 345 345 343 343 342 342 341 341 341 342 342 342 341 340 340 342 342 343 344 344 344 344 344 344 344 344 343 344 344 343 344 343 344 344 345 344 344 344 343 342 339 340 340 340 339 338 338 338 338 339 340 340 340 342 338 335 335 335 334 333 332 325 325 325 327 332 336 334 335 334 335 335 335 335 334 335 335
338 338 337 338 341 343 345 346 346 345 342 342 342 342 342 342 342 341 342 341 342 341 340 342 343 343 343 343 343 344 343 343 343 344 343 344 343 343 343 345 346 345 344 345 344 343 343 343 341 339 339 339 338 338 338 338 338 339 340 340 340 341 339 337 336 334 331 328 324 324 324 325 326 328 334 336 336 334 333 335 336 336 336 336 335
338 337 336 339 340 343 345 346 345 346 343 342 341 341 340 340 342 341 340 339 340 340 340 342 343 343 343 345 347 346 346 345 343 344 344 344 344 344 343 343 344 344 343 343 344 343 343 342 340 339 339 338 338 337 337 337 338 338 340 340 340 338 336 336 335 334 332 325 324 324 324 324 325 328 334 335 333 335 334 334 334 335 335 335 333
335 335 338 339 341 343 344 345 346 346 343 342 340 339 340 340 341 343 345 340 339 340 341 341 341 342 342 344 346 346 346 345 346 345 345 344 344 344 344 344 344 343 343 343 343 342 341 341 340 339 338 337 336 336 337 337 338 339 339 340 339 338 335 334 333 331 327 325 325 324 324 324 325 327 333 335 335 334 333 332 333 333 333 333 333
334 336 339 339 340 342 344 345 346 345 342 341 341 341 341 340 340 345 346 342 340 341 342 343 344 344 343 343 345 345 345 345 345 344 344 344 344 343 343 342 342 342 342 342 342 342 342 340 338 337 337 336 335 335 336 336 337 338 338 338 338 337 335 333 331 329 324 324 325 327 331 333 325 327 330 335 334 332 332 333 331 330 331 331 331
334 335 337 339 340 342 345 346 345 345 342 340 340 340 340 340 340 344 345 345 345 345 345 344 344 344 343 343 344 344 344 344 343 343 343 342 342 342 342 342 341 341 341 341 341 341 340 339 337 336 335 335 334 334 335 336 336 337 337 337 337 337 334 332 329 323 324 324 324 324 329 333 323 326 333 334 334 331 333 333 331 331 331 331 330
333 334 335 338 345 341 345 344 344 342 343 341 340 339 339 340 344 344 344 344 345 344 344 343 342 342 342 343 343 343 343 343 342 342 342 342 341 341 342 341 341 340 340 339 339 338 338 338 337 336 334 334 333 333 334 334 335 335 335 336 336 336 334 331 324 323 322 323 324 324 324 325 325 330 334 333 332 332 330 330 330 331 331 330 331
333 334 336 338 340 341 343 345 343 343 343 341 341 341 342 344 344 343 344 344 344 343 343 342 342 341 341 342 342 342 342 341 341 341 341 340 340 340 341 341 340 339 338 337 337 337 337 337 336 335 334 333 332 333 333 333 334 334 334 334 334 334 332 329 323 323 322 322 322 322 323 325 326 332 333 332 333 331 330 331 330 330 330 330 331
333 334 335 337 339 344 339 341 342 343 342 342 341 343 343 343 343 343 343 343 343 342 341 341 341 341 341 341 341 341 341 340 340 340 340 340 339 339 339 339 339 339 338 338 338 337 337 336 336 334 333 332 332 332 332 332 333 333 333 333 333 334 330 328 327 323 323 323 324 325 323 324 326 332 333 332 333 332 330 330 331 331 330 330 330
332 333 335 336 336 335 341 338 341 340 341 342 343 343 343 343 343 344 343 342 341 341 340 340 340 340 340 340 340 340 340 340 339 339 339 339 339 339 339 339 339 338 337 337 337 336 336 336 335 334 333 332 331 331 331 331 332 332 332 332 332 330 328 323 324 324 324 325 324 325 325 325 331 331 332 331 331 332 332 329 329 331 330 329 329
333 334 334 333 333 334 335 339 336 338 340 341 342 343 343 343 343 342 341 341 340 340 340 340 340 340 340 340 340 342 340 339 339 339 340 339 339 338 338 338 337 337 337 337 336 336 336 335 334 333 332 332 331 330 330 331 331 331 332 333 330 328 326 324 323 323 322 323 323 324 324 327 336 331 331 331 331 330 331 331 330 329 329 329 329
334 333 333 333 332 332 333 333 335 335 335 336 338 340 342 343 343 343 341 342 341 340 340 340 340 341 343 342 342 342 342 342 340 340 340 338 338 338 338 338 337 338 337 336 336 336 335 335 334 333 332 331 330 330 330 330 330 330 333 331 329 327 324 323 322 321 322 322 322 324 326 329 334 331 331 331 330 330 330 330 330 330 329 329 328
333 333 333 332 331 331 331 330 334 336 335 334 334 337 340 342 341 341 341 341 341 341 341 342 342 341 341 340 340 340 341 341 341 340 339 339 338 338 338 338 337 337 337 336 337 336 335 335 334 333 332 331 330 330 330 329 329 332 330 329 327 325 323 322 319 321 320 322 320 323 326 334 334 335 332 331 331 330 330 330 330 329 328 328 328
332 333 333 331 331 330 330 329 332 334 334 333 332 335 334 337 339 339 339 340 340 340 340 339 338 338 337 336 336 335 334 336 336 337 336 336 335 334 336 337 337 336 336 336 337 336 336 335 333 333 332 331 330 330 329 331 330 329 329 328 325 321 321 320 318 319 318 318 318 320 323 334 333 334 334 332 331 330 329 330 330 330 331 329 329
328 332 332 331 331 330 329 328 330 332 332 332 332 332 332 332 335 336 337 337 337 337 335 334 332 332 332 331 330 329 329 329 329 331 332 335 333 330 333 335 335 336 335 336 336 336 335 335 335 333 332 331 330 330 331 330 329 330 328 327 323 319 318 317 317 317 317 318 318 319 330 332 333 333 334 333 331 330 330 331 332 332 333 331 330
326 328 331 331 331 331 329 328 329 330 331 331 331 332 332 330 331 332 333 334 334 333 332 327 325 325 326 325 327 328 328 328 328 327 326 327 325 327 331 335 335 335 334 334 335 334 334 333 333 332 332 331 331 329 328 330 329 328 327 323 319 318 317 318 317 318 316 317 318 320 332 331 331 333 333 333 332 331 331 332 332 332 332 332 332
322 323 326 330 331 331 329 328 329 328 329 331 332 332 331 331 331 332 332 331 329 327 327 328 330 326 323 326 328 328 327 327 327 330 325 327 327 326 330 334 335 334 333 333 333 333 333 333 332 332 332 331 327 318 319 323 326 327 323 319 315 315 316 317 318 316 317 316 317 324 330 329 330 331 333 331 332 333 332 332 332 333 333 333 333
321 321 323 326 331 332 330 329 329 328 329 330 332 331 331 330 330 331 330 327 329 328 328 328 327 327 326 326 326 327 328 327 327 327 326 322 326 325 328 331 333 332 333 333 333 332 332 332 332 332 331 330 319 316 316 315 314 319 318 316 315 316 317 317 316 317 317 316 316 328 329 328 329 330 332 331 332 332 331 332 332 332 333 333 333
322 322 323 326 327 331 331 331 330 329 330 330 330 330 331 330 330 330 329 328 328 328 328 328 328 327 327 327 326 325 326 327 329 328 325 322 322 322 325 327 328 328 329 330 330 331 331 332 332 331 330 323 317 317 318 318 316 315 315 315 316 316 317 316 315 316 316 318 317 328 329 327 327 329 331 331 331 330 330 330 331 331 332 332 332
324 324 323 325 325 327 331 330 330 329 330 330 329 329 330 329 329 329 329 328 327 328 328 328 328 328 327 327 327 324 327 327 326 325 323 323 322 323 323 325 325 324 323 323 322 320 322 321 319 320 317 317 316 318 317 316 316 317 316 316 317 316 315 315 316 315 317 318 317 326 328 328 327 329 330 331 331 331 330 331 332 333 333 332 332
323 323 323 324 326 326 326 326 330 329 330 330 329 328 328 327 328 329 329 328 328 328 327 328 328 328 327 327 327 326 326 326 325 324 323 322 322 321 322 323 322 323 322 323 321 319 318 319 317 318 317 317 317 317 316 316 317 316 315 316 315 315 314 314 315 317 315 317 316 323 326 329 327 328 328 330 331 331 331 331 333 333 332 332 332
322 323 324 324 326 326 325 325 328 328 328 329 329 327 326 326 328 328 328 327 328 327 326 327 328 329 327 327 325 325 325 325 325 324 323 323 322 322 321 322 322 322 321 321 321 321 319 319 318 319 317 317 317 316 316 317 316 316 315 315 316 316 314 315 314 316 315 317 318 320 325 330 328 327 327 329 330 330 331 331 331 332 332 332 332
321 322 324 324 324 326 326 326 326 327 327 327 327 325 326 324 327 326 328 326 327 326 324 326 327 329 327 327 324 325 325 323 323 322 321 322 322 323 322 321 321 322 322 320 320 320 320 319 320 320 316 316 317 316 315 317 316 315 315 314 314 315 314 314 316 319 320 320 321 319 322 328 329 327 328 330 330 330 330 329 330 330 331 331 331
320 322 324 324 324 326 327 326 325 326 326 326 325 324 324 324 324 324 326 324 327 326 324 325 326 327 328 326 324 323 322 323 322 322 319 321 323 323 321 321 322 323 321 318 320 320 318 316 318 318 316 316 316 316 315 315 315 316 317 314 314 316 315 315 318 318 318 318 318 319 320 324 327 328 328 328 329 329 329 329 328 329 331 331 330
321 323 323 324 325 325 326 326 326 326 326 325 324 323 323 324 323 323 324 322 326 325 324 324 325 327 327 326 324 324 322 322 322 321 320 320 320 321 321 321 321 320 319 319 316 318 317 316 315 316 319 317 316 318 316 316 316 314 317 318 317 318 316 316 317 318 319 316 318 318 318 322 326 327 326 328 328 328 328 327 328 328 330 330 330
322 322 323 323 324 324 326 326 327 325 325 325 323 324 323 323 323 323 323 323 324 324 323 324 324 325 327 326 324 324 323 323 322 322 321 320 320 320 320 319 318 317 318 320 317 317 317 317 318 317 318 316 315 313 314 317 315 315 317 320 321 319 319 320 319 320 320 319 319 317 317 319 324 326 326 327 327 326 326 326 327 327 328 329 330
321 322 323 323 324 324 325 326 327 326 326 326 323 323 323 324 323 323 323 323 323 324 324 324 322 324 326 325 324 323 323 323 323 323 322 321 320 319 319 319 320 318 319 320 319 318 317 315 316 316 316 316 315 314 314 315 314 315 314 317 318 319 319 319 318 319 320 317 316 316 316 319 319 321 324 326 326 326 325 325 326 326 327 328 329
323 323 324 322 323 324 325 326 326 326 325 326 325 324 324 324 323 323 323 324 323 324 324 324 324 324 325 324 324 324 323 323 323 323 322 322 321 320 319 320 320 320 319 319 318 317 315 314 315 315 315 315 315 315 316 315 314 316 315 318 319 319 319 318 318 316 315 316 318 318 318 318 317 316 319 322 324 324 325 325 325 325 325 326 328
323 323 324 323 324 325 326 326 326 325 325 326 326 324 324 324 323 323 323 323 323 323 323 323 324 324 324 324 324 324 323 323 322 322 322 322 322 321 320 320 320 320 320 319 318 317 317 315 316 314 317 315 315 316 315 317 316 316 316 318 315 319 319 318 315 315 316 319 320 319 317 316 313 312 315 318 320 323 323 324 324 323 323 323 324
323 324 324 324 323 324 325 326 324 325 324 325 324 325 324 323 323 324 324 324 323 323 323 323 323 324 324 324 325 324 324 324 322 323 322 322 321 321 320 321 321 320 319 320 321 319 319 319 314 317 317 315 316 318 317 317 316 317 318 318 318 318 317 318 316 315 316 316 316 315 316 314 312 311 312 311 313 316 321 321 321 322 322 322 321
326 325 325 325 324 324 324 325 323 324 324 324 324 325 324 324 324 323 324 324 324 323 324 324 324 324 323 324 325 325 324 325 323 323 322 321 322 321 322 321 321 321 320 320 321 320 319 319 318 319 316 317 317 318 316 315 316 317 317 316 316 314 315 314 316 315 318 317 316 315 314 313 312 309 309 309 310 313 316 319 320 320 320 321 322
327 326 325 325 324 324 323 324 323 323 324 324 324 324 324 324 324 324 325 324 324 324 324 325 324 324 323 323 325 325 324 325 324 322 323 321 321 321 322 322 322 322 320 320 320 320 320 320 318 318 319 318 316 316 315 314 314 315 316 316 317 317 316 315 316 316 316 315 314 313 313 312 311 309 309 309 309 310 312 315 316 316 318 320 320
327 327 326 326 325 324 323 324 323 323 324 324 323 324 324 324 324 324 323 325 325 325 325 325 325 324 323 323 325 325 324 324 324 322 322 323 322 321 322 323 322 322 321 320 321 320 320 320 319 318 318 318 315 315 314 315 315 315 314 317 318 315 315 316 315 313 314 314 313 313 313 312 312 311 310 309 308 308 310 311 312 312 312 315 316
327 327 327 326 326 325 324 322 323 323 323 324 323 323 324 324 323 323 324 324 325 325 325 324 324 324 324 324 325 325 323 324 323 322 322 322 322 322 322 322 323 322 322 320 320 320 320 319 319 318 317 318 318 316 317 316 315 314 314 315 313 313 315 313 314 312 313 314 314 313 313 312 312 310 310 309 308 307 307 306 304 304 306 310 311
326 327 326 326 326 326 325 324 323 324 323 324 323 321 321 322 322 321 322 322 324 323 324 324 324 324 324 324 324 326 324 324 324 323 323 323 323 323 322 322 322 322 321 320 319 319 319 319 318 318 317 316 315 317 316 313 310 310 310 311 310 311 311 311 313 314 314 313 313 313 313 312 312 310 309 309 308 307 306 305 303 303 303 305 306
326 326 326 326 326 326 324 324 324 324 323 323 322 322 321 321 321 322 322 322 322 323 324 324 324 324 324 324 324 325 325 324 323 324 323 321 323 323 323 322 322 323 322 322 321 321 321 321 320 317 317 315 314 314 315 315 312 310 309 309 311 312 313 313 315 313 313 313 313 312 310 311 310 309 308 308 307 306 306 305 304 303 301 299 301
324 325 326 326 327 327 326 326 325 325 324 324 323 322 322 323 322 322 323 322 321 321 323 323 324 324 324 324 324 325 326 325 323 324 323 323 323 323 323 323 322 323 323 323 322 319 320 320 319 316 316 316 315 315 316 315 309 309 307 306 307 310 310 313 314 314 314 312 312 311 310 311 309 308 307 306 305 305 305 305 304 302 300 297 296
325 325 326 326 326 326 326 326 326 326 326 325 325 323 323 323 323 323 323 321 323 323 324 324 323 324 324 324 325 325 326 325 324 323 323 324 323 323 323 324 323 322 322 322 322 321 321 320 319 319 315 315 316 316 316 317 312 307 303 306 302 305 307 310 311 313 314 311 309 310 310 310 309 307 306 305 304 304 304 303 303 301 296 295 295
324 324 325 325 326 325 326 326 326 327 326 326 323 326 325 325 324 324 324 324 323 322 323 322 323 323 324 325 325 325 326 325 325 324 323 324 323 323 323 324 324 324 323 323 322 322 321 321 320 319 318 315 314 315 316 317 314 311 307 309 303 302 301 306 307 310 310 311 311 311 311 310 307 305 304 304 303 303 303 302 300 297 295 294 294
324 324 325 325 326 326 326 326 327 326 327 325 324 325 324 323 324 323 321 321 320 321 322 322 323 323 324 324 325 325 326 326 325 325 323 324 323 323 323 323 324 324 324 323 323 323 322 322 321 319 318 317 314 314 314 317 315 318 311 303 303 302 302 300 306 308 311 310 311 312 310 309 305 304 303 302 302 303 302 301 299 297 295 295 294
324 325 326 326 326 326 326 326 327 327 327 326 326 325 324 324 323 322 321 322 322 322 322 322 322 322 323 325 325 326 326 326 326 326 325 323 324 323 323 322 323 323 324 324 324 323 322 321 321 320 318 319 318 314 313 313 316 315 314 313 309 306 303 302 308 305 310 310 309 310 310 308 304 303 302 302 302 302 301 300 297 295 295 294 294
323 325 325 325 326 326 326 326 327 326 327 326 326 324 324 324 324 324 323 323 322 323 325 325 325 325 324 324 325 325 326 326 326 326 326 324 324 324 323 322 323 324 323 324 323 323 323 322 322 321 320 319 318 315 315 314 311 313 313 311 307 304 305 306 304 302 305 308 309 309 309 308 304 303 302 302 302 301 301 299 296 295 295 294 293
323 323 323 324 324 325 325 325 326 325 326 326 325 325 324 324 324 324 323 323 323 323 323 324 325 324 324 324 324 325 326 326 327 327 327 325 324 325 325 323 323 324 323 323 324 324 324 323 322 322 322 320 319 318 315 314 314 313 311 311 308 307 308 308 303 304 303 304 306 308 308 306 304 303 302 301 301 301 300 298 296 295 294 293 292
322 321 322 323 324 324 323 324 325 325 325 324 325 325 324 324 324 324 323 323 324 323 321 321 322 322 323 324 324 324 325 326 327 327 327 327 324 325 326 325 324 324 322 324 324 325 324 323 322 321 321 321 320 320 318 315 315 315 311 311 310 310 307 309 308 303 297 300 300 305 304 302 302 300 301 301 301 301 301 299 296 295 294 292 292
320 320 321 321 321 321 321 321 324 325 325 324 324 325 324 322 323 323 322 323 322 322 319 320 321 321 322 323 324 324 325 325 326 327 327 328 327 325 326 326 325 325 321 324 324 324 324 324 323 323 322 321 321 320 319 317 316 316 315 313 311 311 310 310 310 310 305 304 301 301 302 299 297 298 299 299 299 300 301 299 296 295 293 292 291
316 317 318 320 320 321 321 321 323 324 324 324 323 323 324 323 323 323 322 322 322 321 321 321 322 320 322 323 323 325 325 325 325 325 327 328 328 327 326 327 327 325 323 324 324 324 324 324 324 323 322 322 321 320 318 317 316 315 314 314 314 313 311 310 310 310 309 304 299 300 301 300 300 298 298 299 299 300 301 299 297 295 292 291 290
Wind_Speed
3 6 3 4 5 6 9 12 11 9 11 13 11 12 12 13 14 13 12 13 12 14 15 14 14 15 16 16 16 16 16 17 17 17 16 15 16 18 17 17 18 19 19 19 21 20 20 19 19 19 19 19 19 19 20 21 21 20 19 19 20 21 21 20 20 18 19 21 21 21 20 19 19 19 19 19 19 18 15 17 14 10 8 14 20
6 5 3 2 6 8 8 11 10 10 11 12 12 14 14 13 11 14 14 13 14 15 15 14 13 13 13 14 14 15 15 16 16 17 17 16 16 17 19 18 18 18 20 20 20 20 19 19 19 19 19 18 18 19 20 20 18 17 16 15 14 13 16 19 19 18 18 18 19 20 20 20 21 20 19 19 18 19 15 17 16 8 7 18 20
7 6 3 2 4 7 9 10 10 10 12 12 13 14 15 14 14 14 13 12 12 13 14 14 14 15 15 15 15 15 16 16 16 16 17 16 16 17 17 18 19 19 20 21 20 19 19 19 18 18 18 17 17 17 17 16 15 15 14 14 13 12 14 16 17 17 17 17 16 17 16 19 20 19 19 19 19 20 16 17 17 15 11 19 16
9 5 3 2 6 9 10 10 10 11 12 13 13 14 14 14 14 13 13 13 13 13 13 14 16 16 16 15 16 15 17 17 17 17 16 16 17 17 18 17 18 19 20 20 20 19 19 18 18 18 17 17 16 16 15 15 14 14 14 13 12 11 12 16 16 17 16 15 14 11 6 6 10 18 19 18 19 19 16 18 19 19 19 17 19
9 6 4 3 5 8 11 11 11 11 13 13 12 12 13 13 13 12 13 14 13 12 14 13 15 15 15 15 15 17 17 16 16 16 16 16 16 17 17 17 18 18 20 20 20 19 18 18 17 17 17 16 15 14 14 13 14 14 13 13 14 14 16 17 17 15 14 14 13 8 7 6 5 17 18 19 17 15 16 17 17 17 18 18 18
9 6 4 5 4 5 9 10 11 12 14 14 12 12 12 12 13 13 13 14 13 11 13 14 14 15 16 15 15 15 16 16 16 16 16 16 16 16 16 16 17 17 18 19 18 18 18 17 17 16 16 15 15 14 13 13 13 13 14 14 14 13 15 16 15 14 12 13 10 6 6 5 5 8 19 16 17 15 17 17 17 17 17 18 17
11 5 5 5 5 5 9 10 12 13 14 13 12 13 13 12 12 12 12 13 13 12 12 15 14 15 15 15 15 14 15 15 16 16 16 16 16 16 16 17 18 17 18 18 18 17 17 17 16 15 15 14 14 13 12 12 13 14 14 14 13 12 15 14 13 12 11 7 6 5 5 6 5 5 16 16 17 18 17 16 17 16 16 16 18
8 6 6 5 4 7 9 11 13 12 12 14 12 12 12 12 12 12 11 11 13 13 13 14 15 14 14 15 15 15 15 15 17 17 16 16 16 16 16 16 17 16 17 18 18 17 16 15 15 14 14 14 13 12 12 12 12 13 13 14 14 14 15 14 13 13 11 6 5 4 5 4 5 5 16 18 17 17 16 15 16 16 16 16 13
8 8 6 5 5 9 9 10 13 12 12 13 13 13 12 12 12 12 10 10 12 12 12 12 13 13 14 14 14 14 15 16 16 16 17 17 16 16 16 16 16 16 16 16 16 16 15 15 14 13 13 13 12 12 11 12 13 14 15 16 14 13 17 15 13 12 8 5 5 5 4 3 4 6 14 16 15 15 15 11 12 15 16 14 14
9 8 7 5 5 10 10 11 13 13 12 11 11 12 12 11 11 12 11 10 13 12 12 13 13 13 13 13 15 15 16 16 16 16 17 17 16 16 16 16 16 16 16 16 16 16 15 15 14 13 13 13 12 12 11 12 13 14 15 15 15 15 15 13 12 9 7 6 5 4 4 5 3 4 12 15 16 15 12 11 12 10 10 14 15
10 8 6 6 7 10 11 12 11 10 12 11 10 11 11 11 11 11 11 13 13 13 12 13 12 12 13 14 15 16 16 16 16 16 16 17 16 15 16 15 15 14 15 15 15 15 15 14 14 13 13 13 12 11 11 12 13 14 15 15 14 13 14 13 9 6 6 7 7 6 8 9 4 4 13 14 16 14 10 11 13 13 14 15 15
9 8 6 6 11 10 11 12 13 12 10 11 10 10 10 11 12 11 11 12 12 12 13 12 13 13 13 14 14 15 15 15 14 15 15 15 15 15 15 15 14 14 14 14 14 14 14 14 13 13 13 12 12 11 11 12 12 13 14 14 13 11 10 12 8 6 6 7 7 6 6 5 4 8 14 13 13 13 13 14 13 15 13 13 14
9 7 6 6 6 10 9 9 11 11 10 11 10 11 10 11 10 10 11 12 12 12 13 12 12 12 13 14 13 13 14 14 14 14 15 15 14 14 14 14 13 14 14 13 13 13 13 13 13 13 12 12 12 11 11 11 11 12 13 13 11 9 9 11 6 6 5 5 5 5 5 5 5 13 13 12 14 14 14 13 13 14 14 13 15
8 7 6 6 6 9 8 10 11 11 10 8 8 12 12 11 11 11 12 13 12 11 12 12 12 12 12 12 12 13 12 13 13 14 14 14 13 13 13 13 12 13 13 13 13 13 13 13 13 13 12 12 12 11 11 10 10 10 11 11 11 9 9 7 7 5 5 5 5 5 5 3 5 13 13 12 13 13 13 12 13 14 12 12 12
10 8 6 5 5 5 9 9 10 11 11 10 9 10 11 11 12 12 12 12 12 12 12 11 12 12 12 12 12 12 12 12 12 12 13 13 13 13 12 12 12 13 12 12 12 12 12 12 12 12 12 12 11 10 10 9 9 9 9 10 9 8 8 5 5 4 5 5 4 5 5 4 8 12 13 11 11 11 13 12 12 13 12 11 12
11 8 8 6 5 4 5 8 11 11 10 10 9 9 10 12 12 12 12 12 12 12 11 11 11 11 12 11 12 12 11 13 13 12 10 12 12 12 12 12 11 12 11 11 11 11 11 11 12 12 12 11 11 10 9 8 8 8 9 9 9 10 9 6 5 4 5 5 4 4 4 4 4 11 11 11 10 10 10 11 11 11 11 10 10
10 8 9 6 6 5 4 4 8 12 10 9 9 8 9 9 8 9 10 10 10 11 11 11 11 11 12 12 11 11 11 11 11 10 10 11 11 10 11 11 11 11 11 11 11 11 10 10 10 11 11 11 10 9 8 8 8 9 8 7 8 9 8 6 4 4 5 4 3 4 5 5 9 8 9 9 9 9 10 10 10 9 9 9 9
10 9 8 7 6 6 6 5 6 7 6 7 9 8 7 7 8 10 11 11 10 10 9 10 12 11 10 10 10 10 10 11 11 11 11 11 9 9 10 11 11 11 11 10 10 10 10 9 9 9 10 9 9 8 7 7 7 6 7 8 8 9 8 6 2 4 4 4 4 3 4 6 10 8 7 8 8 8 7 7 8 6 5 6 5
9 9 8 8 7 7 7 6 6 6 6 5 4 6 9 8 9 10 11 11 10 10 11 10 11 11 11 10 11 11 11 11 11 11 10 10 9 8 8 9 10 9 10 10 9 9 9 9 8 8 8 8 8 7 6 5 4 5 5 6 7 7 8 5 4 3 4 3 3 3 3 5 7 6 6 6 7 7 5 5 6 8 7 6 6
6 9 9 8 7 7 6 6 7 7 6 5 5 4 7 9 9 11 11 11 11 10 11 11 11 11 11 11 11 9 9 9 11 8 10 10 9 7 8 8 9 9 9 9 9 8 7 7 7 7 7 7 7 5 3 2 2 2 3 5 5 5 4 2 4 4 3 3 2 2 4 5 5 5 6 6 5 5 5 6 6 7 7 6 5
3 7 8 8 8 9 8 6 6 8 7 7 5 5 6 9 8 10 12 12 10 10 10 11 10 10 9 10 9 7 6 6 7 6 8 6 8 7 7 7 8 8 8 8 8 7 7 6 6 6 6 5 3 2 2 1 0 1 2 4 6 3 1 2 3 3 3 3 3 1 3 3 4 4 5 5 4 5 5 7 7 6 6 6 7
5 4 6 9 8 8 10 9 7 8 8 7 5 5 5 7 6 6 6 8 9 9 8 6 7 5 9 8 6 6 5 5 6 6 5 6 6 9 8 9 9 7 7 7 6 6 6 6 5 6 6 5 4 2 1 3 4 3 2 1 2 2 2 2 4 3 4 3 3 3 4 3 4 5 5 4 5 5 6 6 6 7 7 7 8
5 4 6 7 9 8 9 9 8 8 9 7 6 6 7 5 6 6 5 7 7 7 5 6 5 6 5 5 5 6 6 5 5 6 6 7 7 8 8 9 9 8 7 7 6 5 5 5 5 5 5 5 3 2 2 3 3 5 4 2 2 3 2 1 3 4 4 3 3 5 4 2 2 4 4 4 5 6 5 5 6 7 7 8 9
8 6 6 5 8 9 9 9 9 8 9 7 6 6 6 6 6 5 6 5 6 6 5 5 5 6 6 5 5 4 4 5 7 11 9 5 5 6 8 8 7 7 8 5 6 6 6 5 4 4 4 3 3 4 4 4 4 2 3 2 3 3 2 2 2 4 3 3 3 5 3 3 0 1 3 3 4 3 4 5 6 6 6 6 6
9 6 5 7 7 8 8 8 9 7 10 8 7 7 6 6 6 6 6 6 6 5 6 6 6 6 6 5 4 3 4 5 6 6 6 5 5 4 4 4 4 3 5 3 4 3 3 3 2 3 4 3 3 4 3 3 3 1 2 1 3 1 1 3 3 2 4 3 4 6 5 3 2 0 2 3 4 5 5 6 6 8 8 8 8
6 8 8 8 8 6 7 6 8 7 9 9 8 8 8 7 6 7 7 6 6 6 6 6 6 6 5 6 5 5 5 6 6 6 6 6 5 5 5 4 4 4 4 4 4 3 3 3 3 4 5 3 3 3 1 1 0 0 1 1 1 2 1 1 1 2 2 5 4 8 6 4 3 1 1 2 4 5 5 6 7 8 7 7 7
9 10 8 8 9 8 7 6 8 8 9 9 8 8 7 7 7 7 7 7 6 7 7 6 6 6 5 6 6 6 6 6 7 6 7 6 6 6 5 5 5 5 4 5 4 4 4 5 5 5 5 3 4 2 3 2 2 2 2 0 0 0 1 2 1 1 2 4 5 8 6 6 5 2 0 2 3 5 5 5 6 6 6 6 5
8 10 9 9 10 11 9 7 7 8 7 8 8 8 7 7 8 8 8 9 8 7 7 7 6 7 5 6 5 7 7 6 6 6 6 5 6 6 5 5 5 5 5 5 5 5 5 5 5 5 3 4 3 4 3 4 4 3 3 3 2 1 2 3 2 1 3 1 3 6 6 6 3 1 2 2 3 3 3 4 4 4 4 5 4
11 10 10 9 11 11 10 10 7 8 7 8 8 7 8 7 8 8 8 9 8 7 7 7 7 7 6 6 5 7 6 7 6 6 5 6 6 6 5 6 6 6 5 6 5 5 5 4 4 5 4 3 3 3 3 3 4 4 4 4 3 3 4 3 3 3 3 2 2 4 8 6 4 2 3 4 4 3 3 3 3 3 4 4 4
13 12 11 10 9 9 11 12 10 9 8 7 7 7 7 8 7 8 8 8 8 8 7 7 7 7 7 6 6 6 6 7 6 6 6 6 6 6 6 6 7 6 6 6 4 4 4 3 3 3 4 4 4 6 4 5 4 4 4 5 4 4 4 4 4 5 4 3 3 3 8 6 5 4 5 5 5 4 3 2 3 3 4 4 5
11 12 11 10 9 9 10 11 11 9 7 8 7 8 8 8 7 6 7 8 8 9 7 7 7 7 8 7 6 7 7 6 6 6 6 6 5 5 6 5 5 4 5 5 4 4 4 5 5 6 5 4 5 3 4 5 4 3 3 4 5 5 4 5 5 4 3 4 3 3 4 7 6 6 6 6 7 5 4 3 3 3 3 5 6
12 12 11 10 11 12 12 12 12 11 10 10 7 8 8 9 7 6 6 6 7 8 8 7 7 8 8 8 7 7 6 6 6 6 6 6 5 5 5 5 6 5 5 5 5 5 5 4 5 4 4 4 3 2 3 3 3 4 3 4 3 4 5 5 4 3 4 3 3 3 4 5 6 6 5 8 8 7 5 4 4 4 5 4 5
9 12 11 11 13 12 12 12 12 11 12 12 9 8 8 8 8 7 6 6 6 6 7 7 7 7 8 9 8 8 7 7 7 7 7 6 6 6 5 5 5 5 5 5 5 5 4 3 3 3 4 3 2 3 2 3 3 4 3 4 4 4 6 5 4 4 4 4 3 4 6 5 4 5 6 8 8 8 7 7 6 5 4 4 5
8 7 10 12 11 9 8 9 11 12 13 11 10 8 8 8 8 7 6 6 6 6 6 6 6 6 7 8 8 7 7 6 6 6 7 6 6 6 6 6 6 5 5 6 6 6 6 4 4 3 4 3 3 4 3 4 4 4 3 4 3 5 6 4 4 5 4 4 3 5 6 5 5 3 4 7 7 7 8 7 7 6 5 3 3
6 7 11 11 11 10 9 8 10 11 11 11 11 10 7 8 8 8 7 7 6 6 6 6 6 6 7 7 8 7 7 7 6 7 7 7 7 7 7 7 6 6 6 6 6 6 6 6 4 5 4 4 4 5 4 5 4 5 6 5 5 5 3 5 4 4 3 2 5 5 6 6 5 4 4 4 5 7 8 8 6 5 5 4 2
10 9 10 10 11 11 10 10 9 11 11 11 10 10 9 9 8 9 8 9 8 7 7 7 6 6 6 7 8 9 9 9 8 7 7 7 8 7 7 7 7 7 7 6 6 7 6 6 5 6 6 6 5 6 4 5 5 6 5 4 6 4 4 4 4 3 3 4 5 5 6 6 6 5 5 5 4 4 8 8 8 6 4 4 7
12 9 11 10 11 11 12 11 12 11 10 10 9 7 8 8 8 9 9 9 9 9 8 8 7 6 6 7 8 9 9 10 9 7 7 8 7 8 7 8 7 7 7 7 7 7 6 6 6 6 7 7 6 6 5 5 4 5 4 4 5 5 5 5 5 4 3 5 5 5 6 5 6 6 5 5 4 5 7 9 8 8 8 9 7
12 12 10 12 12 11 11 12 10 10 10 10 9 8 8 7 7 7 7 9 9 8 8 8 9 7 6 7 7 8 9 9 9 7 7 8 8 8 7 8 8 7 7 7 8 7 7 7 7 6 7 6 6 5 5 4 4 4 4 4 4 5 6 5 3 4 5 5 5 5 6 5 6 6 6 5 5 5 5 7 10 10 10 9 9
10 12 11 10 10 10 10 10 10 10 9 9 8 7 7 6 5 6 7 7 7 7 7 8 9 8 8 7 8 8 8 8 9 8 8 7 8 8 7 8 8 8 8 8 8 8 7 7 7 6 5 6 6 6 6 6 4 3 3 4 3 4 5 3 4 5 5 6 6 5 4 5 5 5 6 6 5 5 5 4 5 5 6 10 10
11 12 12 11 11 10 10 10 10 10 8 9 8 7 7 7 7 5 6 7 7 6 7 8 7 9 8 7 7 8 8 9 9 9 9 8 8 9 8 7 8 8 9 9 8 8 9 8 7 7 6 6 5 6 5 4 3 3 4 4 3 3 4 3 4 4 5 6 6 6 6 5 5 5 5 6 6 5 5 4 4 5 5 7 10
11 13 13 13 14 13 11 13 11 11 10 10 10 10 9 7 7 9 10 8 8 7 8 8 8 8 8 9 8 8 8 9 10 9 10 9 8 8 9 8 7 8 9 10 9 9 9 9 8 7 8 7 6 5 5 5 4 3 2 3 5 4 4 4 5 5 6 6 6 6 5 6 4 5 4 6 5 6 5 5 5 5 5 5 5
12 13 15 16 14 13 14 13 10 11 12 12 11 11 11 11 10 10 8 8 8 8 9 8 9 8 9 10 9 9 10 11 10 10 10 10 9 8 9 10 8 8 9 9 9 9 9 8 7 6 6 9 7 7 6 6 3 5 3 2 3 4 3 3 4 5 6 5 6 6 5 6 5 5 4 5 5 6 6 6 5 4 4 5 4
13 14 15 13 13 14 14 12 12 13 12 12 11 12 11 10 10 8 10 7 7 8 8 8 8 8 9 10 10 10 11 11 11 11 11 11 11 10 10 9 10 8 8 9 9 10 9 11 9 9 6 5 6 5 7 8 6 4 2 1 2 1 2 1 1 4 5 5 5 6 6 5 6 6 6 6 5 5 5 5 5 4 4 4 4
10 11 12 15 12 12 13 14 13 13 12 13 13 12 11 10 10 8 6 8 7 6 7 6 8 8 10 10 10 10 11 11 12 12 11 11 12 12 10 10 10 9 10 10 10 11 10 9 9 9 7 7 6 7 7 8 6 7 3 6 4 3 2 6 4 4 4 6 7 7 6 6 7 6 6 6 6 5 5 6 6 5 4 4 4
13 13 13 14 12 16 15 15 13 14 13 13 14 10 9 8 8 5 4 4 2 6 7 9 10 10 10 10 13 11 11 11 12 13 12 13 12 12 12 12 11 11 10 11 11 12 12 11 12 10 11 10 8 6 6 7 9 9 7 4 1 1 6 3 5 3 3 4 5 7 6 7 7 7 6 5 5 6 6 6 5 5 4 4 3
14 14 15 15 14 13 13 13 12 12 13 14 14 11 11 11 10 10 10 10 11 10 13 15 12 13 15 12 9 10 11 11 11 13 13 12 13 13 13 12 12 11 12 11 11 10 12 12 12 11 12 11 9 7 6 5 8 10 9 7 7 5 5 3 6 4 2 1 3 3 6 7 7 7 6 6 6 6 6 6 5 5 5 4 4
13 12 12 13 13 12 12 13 13 11 11 11 12 11 11 11 13 14 13 13 14 12 12 9 10 10 8 8 10 9 10 11 11 12 12 13 12 13 13 13 12 12 11 11 12 13 12 13 11 11 11 10 8 9 10 8 3 6 8 6 3 2 5 6 6 4 6 3 3 4 3 5 6 7 7 7 7 7 5 6 5 5 4 4 4
12 8 8 8 11 13 12 13 11 10 9 9 11 13 13 12 12 12 12 12 14 14 11 10 7 6 8 10 8 9 9 9 10 11 12 12 12 12 12 12 12 12 12 12 13 12 10 10 11 13 11 10 11 11 10 8 11 7 7 6 4 3 3 1 2 6 6 7 4 0 2 3 5 5 7 7 7 8 7 6 6 5 5 5 4
10 10 10 11 10 9 8 8 10 10 9 10 12 13 13 13 12 11 11 12 12 10 5 5 7 6 8 9 10 10 10 10 10 11 11 12 12 12 12 12 12 12 11 11 12 12 13 12 12 11 12 11 10 10 9 10 10 9 7 6 5 5 4 4 3 3 4 6 5 8 5 1 1 3 5 6 6 7 8 7 6 6 6 5 4
9 8 8 7 7 6 8 9 12 11 11 10 12 14 14 11 11 12 14 12 9 7 5 7 7 7 10 11 11 10 11 11 12 12 12 13 13 13 13 14 14 12 11 12 12 12 12 13 13 13 13 12 10 10 12 9 10 9 10 9 8 5 5 5 5 5 3 3 6 8 8 9 7 6 4 6 7 6 7 7 7 6 5 5 5
7 7 8 8 8 9 10 11 13 11 10 12 12 13 13 12 13 13 14 14 12 9 9 10 9 8 11 12 11 12 11 12 11 12 14 14 14 14 14 15 13 12 12 12 12 13 12 12 12 12 13 14 11 11 10 10 10 9 11 10 11 11 11 10 9 8 7 4 2 6 5 8 9 7 7 6 7 7 7 7 7 6 6 5 5
Wind_Direction
152 125 119 135 124 130 128 113 106 98 108 102 97 95 92 93 95 95 90 87 84 94 97 94 91 87 85 83 83 87 87 88 88 89 89 90 89 82 80 80 82 83 85 84 78 76 75 74 73 74 73 73 75 77 82 82 82 81 80 77 76 77 78 76 75 69 67 73 74 74 74 72 72 72 70 68 68 74 76 66 57 53 51 55 56
154 128 139 152 132 128 132 116 112 109 102 102 103 98 95 90 82 89 95 94 89 87 85 86 87 88 88 89 92 92 93 92 91 90 89 88 86 84 82 80 81 83 83 79 77 76 75 74 74 73 72 73 75 79 83 83 80 76 71 71 69 65 70 77 81 75 70 70 70 69 69 68 70 70 69 66 66 64 66 67 68 63 59 60 56
132 125 146 174 130 120 115 120 117 118 106 100 98 97 94 94 94 91 90 93 99 99 97 98 99 93 89 91 95 95 94 94 94 91 92 93 91 88 87 88 85 82 82 80 78 76 75 73 73 73 72 74 76 77 78 75 68 63 57 54 52 54 68 79 81 78 69 64 58 54 54 65 68 67 68 67 65 61 55 61 61 61 64 64 62
127 132 144 118 104 113 115 119 122 116 109 101 100 98 98 98 95 95 99 94 90 90 92 99 100 101 102 100 100 99 96 96 95 94 92 90 90 90 85 83 85 84 83 81 77 76 74 74 74 73 75 76 77 74 71 67 61 56 52 48 48 53 70 88 88 82 78 70 60 50 35 19 57 68 66 67 66 63 58 58 59 61 60 61 61
123 132 131 107 101 110 113 114 116 119 113 110 108 111 112 109 97 95 96 98 99 108 109 105 99 96 96 99 99 100 100 99 98 97 95 92 92 91 91 89 86 85 85 82 79 77 76 75 75 75 76 76 75 72 67 63 57 51 45 42 43 58 91 93 89 83 79 73 66 58 46 32 30 67 68 63 66 67 63 60 59 59 58 57 58
124 133 126 116 119 116 120 122 118 115 117 117 116 111 105 105 112 113 110 109 108 106 107 98 98 100 102 101 100 97 97 98 98 96 96 93 91 91 90 88 89 90 88 85 82 79 78 76 76 77 76 75 74 71 66 59 53 46 42 39 41 53 91 98 92 87 80 73 66 62 53 34 27 60 62 69 70 66 65 63 61 59 57 56 57
129 135 122 120 124 131 126 128 125 124 124 122 122 113 110 113 112 108 105 113 111 110 108 108 106 105 103 105 104 103 104 102 98 94 92 90 88 86 84 83 78 81 89 87 83 79 77 75 76 77 78 77 75 71 64 57 49 44 40 41 43 45 68 89 100 94 82 74 75 68 56 44 38 55 63 67 69 64 62 64 63 60 58 55 53
132 128 124 122 125 133 133 136 131 125 126 124 120 119 120 116 108 108 111 109 114 114 114 112 108 106 106 96 91 95 91 97 103 102 96 92 90 89 87 86 90 90 85 84 81 78 77 78 79 78 77 77 75 71 65 59 52 49 47 46 51 60 59 65 73 76 78 80 83 72 62 49 45 60 67 71 68 61 58 59 60 61 60 59 55
128 125 121 125 126 124 127 135 133 126 126 125 126 123 117 115 116 97 86 115 112 107 102 102 107 107 103 93 93 99 101 100 95 98 96 91 88 88 88 85 85 85 84 85 86 85 81 81 81 79 78 76 72 67 62 54 48 45 44 45 52 67 66 62 63 65 67 68 70 73 68 58 60 73 67 69 67 65 67 62 50 55 60 58 56
123 122 122 123 128 128 132 139 135 130 126 126 125 122 121 122 120 96 90 101 114 110 109 105 102 97 100 100 100 103 105 101 99 98 95 94 92 89 89 90 88 86 89 90 86 84 83 82 81 80 79 76 72 66 59 52 47 43 43 44 46 58 63 60 59 60 63 61 49 39 48 46 26 64 68 70 66 63 66 78 65 58 59 56 59
124 121 121 127 134 135 135 132 126 129 125 124 124 121 121 123 122 109 108 104 106 110 111 112 109 109 113 104 103 106 104 100 97 95 96 95 95 93 91 89 88 88 86 87 87 87 86 84 82 80 78 76 72 67 60 51 43 40 40 40 41 51 68 65 60 57 57 58 51 37 30 31 30 55 68 68 70 68 57 70 71 62 61 60 59
125 126 127 135 140 141 142 137 139 138 131 128 128 123 124 124 113 115 119 116 110 117 120 119 117 116 115 108 105 105 105 102 100 99 96 96 97 96 95 94 92 89 90 90 89 89 87 85 84 83 80 78 74 69 61 52 45 40 37 34 35 41 65 76 72 65 57 56 52 46 36 19 15 63 60 62 71 73 71 67 61 66 61 64 61
125 124 125 129 136 147 147 144 136 136 131 137 141 129 121 118 118 123 126 124 120 122 120 120 119 119 115 107 109 109 107 105 103 103 103 103 103 101 98 96 97 97 95 96 95 91 87 86 84 84 82 78 75 69 61 53 48 43 38 36 38 47 69 76 74 70 61 59 57 42 35 32 26 57 64 65 73 67 63 67 63 60 61 47 43
125 123 125 133 138 144 137 138 137 130 127 130 133 127 128 131 124 124 127 128 123 126 121 120 118 119 119 114 112 109 106 103 103 104 106 105 104 102 101 102 100 97 99 97 94 90 87 86 85 84 81 77 72 67 60 55 50 46 41 40 47 51 70 71 78 73 68 60 47 41 24 358 60 59 65 67 71 65 64 60 60 60 57 58 51
131 130 130 129 127 133 128 126 132 130 130 128 120 124 134 138 134 133 132 129 127 125 125 123 122 123 124 121 114 112 110 108 107 105 106 106 106 104 103 104 104 100 100 97 92 88 87 84 82 81 80 77 72 68 62 56 50 43 41 43 42 41 43 80 80 82 71 59 46 36 16 346 69 64 70 69 62 58 64 62 57 53 56 52 50
134 138 130 130 128 128 120 122 127 131 130 129 131 135 139 143 142 142 142 136 133 128 125 125 126 126 128 124 114 102 103 112 109 105 106 114 112 110 110 105 107 106 104 101 100 95 90 87 83 80 79 77 74 68 61 54 42 36 36 32 29 30 30 39 88 82 72 65 54 33 4 352 24 76 73 71 68 61 55 55 57 54 53 47 41
136 140 133 141 135 130 125 119 130 128 127 126 133 140 142 147 148 143 128 124 124 124 128 134 131 111 98 99 97 93 97 98 100 98 98 108 112 108 109 112 112 108 105 104 100 97 92 90 87 83 81 79 75 68 58 46 35 29 21 22 24 20 23 34 82 90 80 75 61 31 15 5 35 78 78 76 68 61 59 57 54 47 46 44 41
141 146 144 150 145 142 135 132 128 127 128 127 132 138 139 129 126 128 125 125 128 128 129 122 109 106 103 102 98 96 94 93 92 95 98 95 96 100 106 109 107 107 106 103 103 102 99 94 93 90 87 84 80 72 57 45 35 23 19 14 12 9 13 30 79 103 94 79 69 59 22 25 40 34 53 66 70 58 58 56 61 57 57 50 46
149 151 153 156 158 152 147 146 138 137 137 136 139 138 132 132 132 134 132 130 127 124 121 121 119 115 115 111 106 102 99 100 102 101 97 101 96 99 102 107 112 111 112 111 109 110 111 107 102 103 99 96 92 85 68 44 29 23 11 1 4 1 6 54 92 93 89 84 81 65 36 33 48 47 47 47 69 59 60 54 40 36 14 36 22
149 157 161 167 164 157 158 155 151 150 149 150 149 148 138 135 137 137 134 132 132 132 133 130 126 123 124 121 116 110 106 106 107 103 108 108 108 110 113 110 118 120 118 119 118 119 121 123 122 122 125 118 115 117 126 118 75 9 350 354 358 3 23 44 116 112 110 105 94 83 50 28 42 58 54 48 62 59 36 28 26 19 19 8 360
155 169 168 172 168 163 168 160 164 160 156 154 155 154 151 141 139 140 139 139 141 141 139 134 130 133 130 131 127 123 124 120 113 116 109 114 118 116 118 123 123 118 116 117 120 124 128 134 143 144 140 136 124 125 149 176 253 239 353 7 349 350 336 103 96 125 122 125 118 85 73 36 358 25 46 47 46 38 30 16 359 14 17 9 351
201 182 194 170 171 171 171 171 173 169 160 156 158 156 157 147 145 145 143 144 143 140 140 145 143 148 148 144 143 144 140 134 131 125 123 119 119 125 121 123 126 123 126 124 128 131 138 147 159 165 158 158 170 168 256 274 251 304 325 16 342 315 290 71 115 141 136 155 143 148 82 41 12 1 10 16 14 12 5 360 355 350 353 357 350
212 206 210 169 173 173 176 177 182 172 164 161 161 161 160 155 153 153 151 151 154 151 158 156 157 161 169 170 165 159 153 148 143 143 138 134 135 132 133 136 139 141 139 141 140 156 159 167 181 182 177 171 181 213 234 262 275 244 280 299 316 286 291 17 122 157 160 174 169 157 128 96 14 359 4 5 7 11 360 355 348 347 346 358 350
196 192 203 187 167 176 182 179 187 172 164 165 163 162 163 160 161 159 157 161 162 164 165 169 173 174 179 187 174 160 162 153 153 142 134 135 136 139 145 143 147 152 156 158 172 178 188 199 208 221 216 189 196 235 221 236 264 316 304 276 258 257 266 265 169 170 165 176 183 164 167 139 189 339 352 359 350 342 339 339 339 330 339 357 354
187 179 186 202 182 176 187 182 183 170 162 165 164 168 166 163 167 165 166 167 173 173 175 180 184 185 184 188 179 166 165 158 154 153 150 151 155 157 161 169 173 170 170 171 191 216 199 226 260 278 258 235 204 227 210 200 235 262 263 202 229 203 331 303 287 188 171 191 192 187 182 177 183 214 5 339 337 333 334 339 331 331 347 342 360
179 186 190 190 197 187 184 187 177 168 162 166 169 172 166 172 173 172 171 175 176 181 184 187 195 195 184 190 175 166 168 163 163 168 163 161 170 178 184 183 181 184 191 193 197 191 215 221 222 234 253 240 221 192 164 139 214 173 168 333 337 14 1 332 279 286 163 178 207 203 192 179 177 193 355 349 336 329 330 332 333 333 339 344 3
185 195 180 188 187 197 190 174 182 169 166 169 169 171 175 178 176 178 172 183 184 184 192 193 198 205 179 190 172 170 176 172 168 173 172 172 176 187 187 186 188 194 193 193 199 199 201 214 220 229 224 213 200 177 191 198 196 228 264 212 157 302 340 320 316 263 206 178 208 213 205 187 184 185 124 3 347 329 327 338 333 334 338 353 25
181 189 188 183 186 193 193 173 181 173 173 173 168 174 182 178 181 180 180 183 183 192 191 193 194 210 182 192 166 169 172 174 178 173 184 179 186 194 195 184 193 204 196 197 195 209 205 209 210 231 198 196 164 218 205 207 223 214 227 230 223 200 252 255 247 222 251 157 202 219 212 201 164 186 74 39 25 2 341 334 340 345 4 8 41
185 187 190 185 190 187 191 186 180 181 175 176 178 174 183 180 180 181 188 181 187 191 189 189 190 204 192 186 180 173 181 174 179 187 173 189 194 197 193 193 192 205 191 208 194 198 211 204 200 205 194 200 215 235 235 236 228 220 205 222 214 213 242 244 240 249 257 243 195 212 202 190 139 132 86 74 66 53 22 12 3 8 20 36 50
187 184 185 192 187 183 189 191 188 183 182 172 185 180 183 188 178 185 189 180 188 192 184 188 192 190 204 180 188 187 179 176 182 191 178 191 192 197 191 187 188 183 183 194 195 186 207 236 233 207 197 215 219 231 216 236 240 211 200 200 215 215 221 231 232 229 231 216 198 196 196 150 144 127 102 99 87 76 63 38 35 39 55 56 62
182 184 186 187 188 181 191 189 190 187 183 183 183 186 186 194 191 182 181 184 187 188 190 185 187 191 199 191 182 185 193 180 174 184 195 183 184 171 185 171 183 186 174 198 191 191 196 206 208 207 204 213 231 215 192 226 238 259 216 201 207 217 225 228 235 231 227 229 192 182 165 139 148 129 119 109 100 91 75 73 70 62 65 66 68
184 187 185 182 185 189 187 189 188 187 188 194 180 187 187 193 195 186 190 188 176 185 190 184 184 189 192 196 186 183 186 190 179 183 188 184 184 180 186 177 191 199 181 196 197 210 205 208 206 185 181 166 208 229 229 216 232 226 194 218 232 229 240 239 245 243 231 211 218 144 125 142 133 118 131 112 100 92 85 79 71 66 58 61 60
197 184 181 179 187 189 186 188 185 187 192 195 189 186 187 186 190 195 196 191 190 183 190 195 187 185 189 193 190 185 187 179 188 185 184 182 185 184 192 200 197 200 194 200 195 205 187 159 204 193 166 175 214 245 198 201 238 261 215 222 220 233 238 240 246 240 229 213 197 139 120 136 130 128 132 109 102 101 94 83 74 70 71 68 63
186 189 177 184 185 188 186 185 188 189 194 195 193 188 185 185 188 193 196 196 197 193 202 198 197 194 186 190 191 189 189 185 175 193 181 179 183 188 194 205 207 206 199 194 190 192 199 187 211 191 203 191 234 250 269 270 255 261 259 251 225 235 239 237 227 216 199 198 157 120 129 131 131 155 124 109 106 103 98 90 84 83 77 82 104
169 187 189 183 182 185 184 191 187 191 192 195 195 196 186 183 186 191 194 194 198 200 205 205 201 204 191 192 192 192 192 191 178 182 189 181 185 194 199 204 202 204 195 196 182 188 187 205 179 193 209 215 215 234 223 234 246 243 237 237 241 245 233 220 213 225 202 173 107 121 135 141 148 161 124 107 95 97 94 90 85 82 93 107 144
192 185 188 181 184 185 186 189 187 191 193 194 195 196 193 190 190 192 191 190 193 201 205 210 207 203 198 194 195 192 195 197 189 182 186 187 188 194 202 200 201 194 193 192 184 190 195 205 203 186 193 218 216 238 225 234 238 241 243 241 242 230 213 204 213 202 193 133 137 134 140 150 156 150 139 116 107 96 94 90 86 79 93 128 95
197 183 182 184 186 187 187 190 189 191 191 193 194 197 197 197 195 194 193 189 192 198 203 208 211 210 206 197 193 192 196 197 196 185 186 189 188 193 199 198 197 194 188 190 191 194 193 202 212 203 189 200 205 221 234 215 228 232 240 240 238 219 215 203 212 185 164 136 145 146 142 149 152 152 137 123 115 103 95 93 80 54 38 80 106
195 192 182 183 188 186 190 193 190 189 188 190 190 193 201 200 202 199 196 196 199 198 200 201 209 212 208 203 193 193 195 195 196 191 194 196 193 192 196 196 192 195 192 189 198 195 196 191 210 211 196 191 203 208 232 239 227 242 234 227 233 202 216 218 198 178 163 145 158 155 156 148 135 139 135 135 131 119 110 100 89 72 61 67 70
191 191 186 184 183 185 187 192 186 186 187 187 184 187 194 201 200 204 207 208 208 208 204 206 208 209 212 204 196 195 196 194 194 194 197 198 200 200 198 200 192 193 194 193 197 199 198 194 198 216 216 201 198 207 214 217 229 218 228 238 239 222 228 231 183 178 173 162 161 160 147 146 136 126 130 141 139 133 122 114 99 92 75 70 73
188 186 186 183 184 183 187 189 190 184 178 184 182 184 184 193 197 205 217 215 211 208 212 212 208 213 212 204 201 199 196 197 197 198 200 199 203 204 205 201 199 191 192 193 197 193 197 200 208 203 214 231 226 215 210 202 214 224 249 272 252 249 262 222 183 177 165 157 158 156 154 153 137 129 132 138 144 143 136 132 118 112 101 82 75
189 186 187 190 188 186 178 191 190 184 180 183 188 187 188 193 203 203 209 204 207 206 211 211 212 213 210 209 201 201 196 198 201 198 203 203 206 206 207 207 198 198 196 200 195 197 196 195 201 199 200 210 227 214 219 185 197 264 288 276 291 257 242 227 191 180 175 166 155 156 154 143 138 131 143 132 139 148 151 142 135 122 110 106 84
200 190 192 195 193 188 189 189 183 190 191 189 188 193 195 195 192 201 198 198 199 202 210 210 212 211 210 210 206 200 197 198 198 199 204 202 204 206 208 207 198 201 202 200 201 198 197 198 192 207 208 199 214 195 206 145 205 204 219 304 307 298 261 223 196 185 176 166 164 146 157 150 143 140 132 128 129 134 147 147 139 130 122 111 105
194 195 197 192 194 195 197 189 190 190 195 191 188 197 198 198 194 194 189 197 205 203 207 206 205 210 212 211 208 203 199 200 195 198 200 204 206 205 209 207 206 196 198 204 201 204 203 203 198 199 208 224 211 206 193 184 196 171 132 103 276 239 315 272 261 203 182 169 156 148 154 151 150 150 149 133 134 130 133 141 143 136 126 113 112
192 199 197 198 197 199 198 196 195 193 193 196 196 198 195 197 203 197 195 194 194 198 207 208 209 210 219 212 213 205 201 201 197 197 200 202 203 206 206 208 209 202 200 202 205 208 205 207 205 208 191 208 209 225 200 191 167 136 192 199 213 140 272 248 182 219 189 167 159 163 158 155 143 145 142 141 149 139 126 129 136 139 133 126 121
196 196 197 199 200 202 199 196 195 197 197 194 194 185 180 189 194 196 190 208 222 197 204 220 212 213 218 214 216 205 202 203 200 200 200 203 203 205 205 207 208 206 205 207 206 208 205 205 201 200 199 201 209 211 220 195 189 188 156 121 66 180 214 224 148 219 161 162 185 164 170 150 146 153 149 156 150 145 132 127 135 138 137 127 120
199 200 199 200 200 202 198 198 201 201 203 198 190 180 182 182 180 187 198 203 211 207 210 211 205 207 213 215 211 207 207 207 203 204 204 203 205 206 206 206 208 209 208 211 210 208 209 205 202 199 203 206 197 199 211 228 199 196 195 184 162 175 180 218 149 209 167 230 153 173 173 159 151 153 154 155 154 149 140 139 142 141 140 136 142
210 205 202 202 202 202 199 199 201 204 203 199 190 189 191 193 192 197 201 203 211 220 220 217 212 217 216 213 215 210 211 210 209 206 207 207 208 208 208 209 209 211 209 210 212 211 208 206 199 201 203 199 191 203 204 198 221 234 210 201 141 142 151 132 200 111 185 215 142 169 188 162 161 153 160 165 159 147 152 144 147 145 145 148 159
207 201 208 211 206 205 199 200 202 204 202 194 191 195 199 201 202 206 207 212 215 223 213 217 215 208 209 216 211 216 214 214 214 212 211 210 212 213 212 213 213 214 209 213 215 213 211 209 204 204 202 197 198 205 201 189 191 212 201 205 190 169 181 142 143 162 162 178 204 77 72 150 170 177 167 165 164 158 153 154 150 151 150 161 164
206 201 200 203 209 209 201 200 205 205 202 190 193 199 203 203 205 208 214 223 224 231 215 208 211 201 211 215 214 216 217 218 216 216 214 213 212 216 213 215 216 217 213 218 219 214 211 208 204 205 206 204 202 205 196 199 198 199 176 213 186 190 187 205 172 139 143 165 199 180 166 83 201 215 184 170 169 161 160 161 160 157 160 164 165
208 205 206 201 199 194 197 197 209 208 202 194 194 200 203 201 205 211 217 223 221 228 199 216 216 199 215 216 214 214 215 217 220 217 216 214 213 212 215 215 217 217 215 219 218 217 216 213 209 207 206 205 202 201 206 196 200 195 188 182 190 185 190 205 210 202 215 192 174 196 175 169 182 219 193 175 172 170 162 158 159 163 164 166 161
208 197 201 198 196 196 200 203 211 209 201 200 195 200 200 200 209 211 216 223 217 211 215 225 219 210 217 218 214 216 212 216 216 221 220 217 215 211 214 217 216 216 217 218 219 217 217 215 212 209 207 205 202 203 206 200 195 194 194 189 195 191 194 198 199 193 187 188 149 191 181 191 182 172 216 188 171 172 166 165 165 171 169 171 166